Regional Weather Roundup
Issued by NWS Grand Forks, ND

Home | Current Version | Previous Version | Text Only | Print | Product List | Glossary On
Versions: 1 2 3 4 5 6 7 8 9 10 11 12 13 14 15 16 17 18 19 20 21 22 23 24 25 26 27 28 29 30 31 32 33 34 35 36 37 38 39 40 41 42 43 44 45 46 47 48 49 50
000
ASUS43 KFGF 071131
RWRFGF
PRAIRIE TO PINES  WEATHER ROUNDUP
NATIONAL WEATHER SERVICE EASTERN NORTH DAKOTA/GRAND FORKS ND
600 AM CDT TUE JUL 07 2015

 **SATELLITE DATA USED TO AUGMENT SKY COVER AT AUTOMATED STATIONS**
 *****  WEATHER ACROSS EASTERN NORTH DAKOTA  *****

CITY           SKY/WX    TMP DP  RH WIND       PRES   REMARKS
GRAND FORKS    CLEAR     44  42  93 W6        30.17S
GRAND FRKS AFB CLEAR     43  41  94 W3        30.17S
GRAND FRKS NWS   N/A     46 N/A N/A W6          N/A
DEVILS LAKE    CLEAR     55  46  71 SW14      30.17S
FARGO          CLEAR     42  39  89 CALM      30.19R
WAHPETON ARPT  SUNNY     41  37  87 CALM      30.20R
$$

 ***** WEATHER ACROSS CENTRAL AND WESTERN NORTH DAKOTA  *****

CITY           SKY/WX    TMP DP  RH WIND       PRES   REMARKS
BISMARCK       CLEAR     46  44  93 E3        30.20S
MINOT          CLEAR     49  44  83 CALM      30.15F
JAMESTOWN      CLEAR     49  46  90 SW3       30.20R
MINOT AFB      CLEAR     45  45 100 S2        30.14F
GARRISON         N/A     51  46  83 S5        30.17S
WILLISTON      CLEAR     54  49  83 SW3       30.14F
DICKINSON      CLEAR     50  47  89 S10       30.15F FOG
HETTINGER      CLEAR     51  49  92 E8        30.18F FOG
$$

 *****  OTHER AIRPORT OBSERVATIONS IN OUR AREA  *****

CITY           SKY/WX    TMP DP  RH WIND       PRES   REMARKS
WALHALLA       FAIR      48  48 100 MISG      30.16S
GRAFTON AIRPOR FAIR      48  48 100 W5        30.17S
VALLEY CITY AR FAIR      43  43 100 CALM      30.20S
CANDO          FAIR      45  45 100 SW7       30.18S
CAVALIER APRT  FAIR      50  46  87 W3        30.16S
GWINNER        FAIR      46  46 100 W7        30.21R
ROLLA          FAIR      48  48 100 SW7       30.18S
 ***** THE ABOVE OBSERVATIONS ARE NON NWS ARE NOT QUALITY
       CONTROLLED AND MAY MIS-REPORT RAIN FOR SNOW...
$$

  *****  WEATHER ACROSS NORTHERN MINNESOTA  *****

CITY           SKY/WX    TMP DP  RH WIND       PRES   REMARKS
FLAG ISLAND    CLEAR     52  46  82 NW9       30.13R
WARROAD        CLEAR     46  45  93 W5        30.15S
ROSEAU         CLEAR     48  45  87 W5        30.15S
HALLOCK        CLEAR     41  39  93 S5        30.16R
THF RVR FALLS  CLEAR     46  45  93 CALM      30.18R
BAUDETTE       CLEAR     45  42  89 W6        30.14R
WASKISH        CLEAR     52  46  82 NW5       30.15R
CROOKSTON      CLEAR     46  45  93 CALM      30.19R
STEPHEN NDAWN    N/A     46  45  93 S3          N/A
GREENBUSH NDAW   N/A     45  43  93 SW2         N/A
$$
  *****  WEATHER ACROSS CENTRAL AND WEST MINNESOTA  *****

CITY           SKY/WX    TMP DP  RH WIND       PRES   REMARKS
FOSSTON        CLEAR     37  36  93 CALM      30.19R FOG
BEMIDJI        CLEAR     42  41  95 NW6       30.17R
PARK RAPIDS    CLEAR     45  42  89 NW7       30.16S
ELBOW LAKE     FAIR      48  47  95 CALM      30.19S
WADENA         CLEAR     45  43  93 NW3       30.17S
DETROIT LAKES  CLEAR     48  45  87 CALM      30.20R
MOORHEAD       CLEAR     45  43  93 CALM      30.20R
FERGUS FALLS   CLEAR     48  46  93 CALM      30.20R
MORRIS MN      CLEAR     46  45  93 NW7       30.18R
STAPLES        CLEAR     46  45  93 NW5       30.17S
$$
  *****  WEATHER ELSEWHERE ACROSS MINNESOTA  *****

CITY           SKY/WX    TMP DP  RH WIND       PRES   REMARKS
DULUTH         MOCLDY    52  44  74 NW6       30.12R
INTRNTL FALLS  CLEAR     39  38  96 CALM      30.12R
ELY            MOCLDY    50  45  81 W5        30.12R
CLOQUET        CLOUDY    48  43  81 NW5       30.13R
WHEATON        CLEAR     46  45  93 CALM      30.22R
BRAINERD       CLEAR     47  45  93 CALM      30.16R
HIBBING        CLEAR     41  40  96 CALM      30.14R FOG
ALEXANDRIA     CLEAR     50  47  89 N6        30.19R
SAINT CLOUD    CLEAR     49  46  90 NW5       30.15R
MINNEAPOLIS    PTCLDY    54  44  69 N10       30.12R
$$

  *****  WEATHER ACROSS SOUTH DAKOTA  *****

CITY           SKY/WX    TMP DP  RH WIND       PRES   REMARKS
SIOUX FALLS    PTCLDY    51  48  89 N7        30.17S
BROOKINGS      CLEAR     48  43  81 N5        30.21R
WATERTOWN      CLEAR     46  43  89 CALM      30.19R
HURON          CLEAR     51  51 100 N3        30.19R FOG
SISSETON         N/A     46  43  89 NW3       30.19R
ABERDEEN       CLEAR     49  47  93 CALM      30.21R
MITCHELL       CLEAR     53  52  96 N5        30.19R FOG
PIERRE         CLEAR     52  50  93 E7        30.17S FOG
MOBRIDGE       CLEAR     56  52  86 E8        30.17S
RAPID CITY     CLEAR     55  54  96 S6        30.17S FOG
$$

  *****  SOME WEATHER IN NEARBY STATES *****

CITY           SKY/WX    TMP DP  RH WIND       PRES   REMARKS
GLASGOW MT     PTCLDY    55  48  77 E10       30.06F
GREAT FALLS MT CLEAR     51  47  86 SW6       30.06S
CHEYENNE WY    CLOUDY    53  52  96 S9        30.25F FOG
SCOTTSBLUFF NE CLOUDY    61  55  81 SE7       30.20F HAZE
OMAHA NE       PTCLDY    54  51  90 N6        30.12R
DES MOINES IA  PTCLDY    59  51  75 N13       30.05R
DAVENPORT IA   PTCLDY    59  57  93 N6        29.97R FOG
CHICAGO IL     HVY RAIN  59  57  93 N20G28    29.92R FOG
EAU CLAIRE WI  CLEAR     49  45  86 NW5       30.07R
LA CROSSE WI   MOCLDY    57  50  77 N10       30.05R
$$

  *****  SOME NATIONAL WEATHER *****

CITY           SKY/WX    TMP DP  RH WIND       PRES   REMARKS
LA GUARDIA NY  PTSUNNY   79  72  78 S6        30.04S
RALEIGH NC     PTCLDY    73  70  90 CALM      30.12R
ATLANTA GA     PTCLDY    72  68  87 W5        30.16R
NEW ORLEANS LA PTCLDY    80  75  84 S5        30.10S
OKLAHOMA CITY  CLOUDY    72  71  97 N8        29.97R
ALBUQUERQUE NM CLOUDY    63  57  81 E21G30    30.19F
SALT LAKE CITY PTCLDY    67  59  75 S6        30.06S
LOS ANGELES CA CLOUDY    64  60  87 W6        29.98S
BOISE ID       MOCLDY    75  48  38 SE10      29.97S
SEATTLE WA     PTCLDY    58  52  80 S6        30.06R
$$

*** WEATHER ACROSS MANITOBA...SASKATCHEWAN AND ONTARIO ***
                ***ONTARIO***

CITY           SKY/WX    TMP DP  RH WIND       PRES   REMARKS
GERALDTON      MOCLDY    50  45  81 NW5       29.97R
THUNDER BAY    PTCLDY    50  46  87 W7        30.05R
SIOUX LOOKOUT  PTCLDY    46  46 100 NW5       30.08R
TORONTO        PTSUNNY   68  61  77 SE6       29.89F
BIG TROUT LK   MOCLDY    54  48  82 W7        29.88S
PICKLE LAKE    MOCLDY    52  43  71 W9        29.99
DRYDEN         CLEAR     45  43  93 W7        30.09R
KENORA         PTCLDY    50  41  71 NW8       30.13R
$$
                *** MANITOBA***

CITY           SKY/WX    TMP DP  RH WIND       PRES   REMARKS
BRANDON        PTCLDY    41  39  93 NW5       30.14F
DAUPHIN        CLEAR     54  43  66 SW10      30.08S
ISLAND LAKE    PTCLDY    57  48  72 W7        29.95S
PILOT MOUND      N/A     43  41  93 SW6         N/A
THE PAS        MOCLDY    52  45  76 SW8       29.93F SMOKE
THOMPSON         N/A     52  45  76 S6        29.80F SMOKE
WINNIPEG       PTCLDY    50  43  76 W7        30.14S
LYNN LAKE      CLOUDY    57  50  77 W10       29.72F HAZE
CHURCHILL      PTCLDY    48  45  87 N15       29.70F
GILLAM           N/A     54  46  76 SW8       29.77F SMOKE
$$
                ***SASKATCHEWAN***

CITY           SKY/WX    TMP DP  RH WIND       PRES   REMARKS
ESTEVAN        PTCLDY    46  45  93 S9        30.13F
KINDERSLEY     MOCLDY    54  48  82 W5        30.02F
LLOYDMINSTER   CLEAR     52  46  82 NW9       30.04R
PRINCE ALBERT  MOCLDY    48  46  93 SW6       29.97F FOG
REGINA         CLOUDY    48  45  87 SE7       30.08F
YORKTON        CLEAR     52  46  82 S8        30.07F
N. BATTLEFORD  CLEAR     45  45 100 NE2       30.00F
LA RONGE       LGT RAIN  55  52  88 NW12G18   29.92R VSB 1/2
SASKATOON      PTCLDY    50  48  93 S7        30.00F
SWIFT CURRENT  PTCLDY    54  45  71 S12       30.04F
$$
NOTE: THESE ARE AUTOMATED STATIONS WITH LIMITED QUALITY CONTROL
      "FAIR" INDICATES FEW OR NO CLOUDS BELOW 12,000 FEET WITH NO
      SIGNIFICANT WEATHER AND/OR OBSTRUCTIONS TO VISIBILITY.
      SKY/WX - SKY CONDITION AND SIGNIFICANT WEATHER.
      TMP - AIR TEMPERATURE.    DP   - DEWPOINT TEMPERATURE.
      RH  - RELATIVE HUMIDITY.  PRES - PRESSURE.
      HX  - HEAT INDEX.         WCI  - WIND CHILL INDEX.
$


USA.gov is the U.S. government's official web portal to all federal, state and local government web resources and services.